Location: Arborea
(39.7744°N, 8.5819°E)
Time: 00:26:22
(UTC+00:00)

Cosmos 1000 Rocket - Pass Details

Date: 11 October 2023
Orbit: 952 x 993 km, 82.9° (Epoch: 03 December)

Event Time Altitude Azimuth Distance (km) Brightness Sun altitude
Rises 04:42:28 0° 13° (NNE) 3,688 7.7 -10.2°
Reaches altitude 10° 04:47:22 10° 47° (NE) 2,723 7.6 -9.3°
Maximum altitude 04:49:09 11° 64° (ENE) 2,626 7.8 -8.9°
Drops below altitude 10° 04:50:57 10° 81° (E) 2,710 8.4 -8.6°
Sets 04:55:44 0° 115° (ESE) 3,639 9.0 -7.6°
